Regional Weather Roundup
Issued by NWS San Angelo, TX

Home | Current Version | Previous Version | Text Only | Print | Product List | Glossary On
Versions: 1 2 3 4 5 6 7 8 9 10 11 12 13 14 15 16 17 18 19 20 21 22 23 24 25 26 27 28 29 30 31 32 33 34 35 36 37 38 39 40 41 42 43 44 45 46 47 48 49 50
000
ASUS44 KSJT 300102
RWRSJT
WEST CENTRAL TEXAS REGIONAL WEATHER ROUNDUP
NATIONAL WEATHER SERVICE SAN ANGELO TX
800 PM CDT TUE JUL 29 2014

NOTE: "FAIR" INDICATES FEW OR NO CLOUDS BELOW 12,000 FEET WITH NO
SIGNIFICANT WEATHER AND/OR OBSTRUCTIONS TO VISIBILITY.

TXZ049-054-064>066-071>073-076>078-098-099-113-114-127-128-139-140-
154-155-168>170-300200
...LOCATIONS ACROSS WEST CENTRAL TEXAS...

CITY           SKY/WX    TMP DP  RH WIND       PRES   REMARKS
SAN ANGELO     MOCLDY    94  63  35 E18G28    30.00F
ABILENE        TSTM      72  71  97 E7        30.10F
DYESS AFB      LGT RAIN  73  70  89 SE9       30.09R
JUNCTION       CLEAR     94  55  26 SE12      30.02S
SWEETWATER     CLOUDY    73  72  99 E8        30.13F
BROWNWOOD      PTCLDY    84  64  51 E10       30.06R
COLEMAN        MOCLDY    86  64  47 E14G20    30.08R
SONORA         PTCLDY    95  54  24 SE15      30.06S
OZONA          FAIR      93  48  21 S12       30.05S
BRADY          CLEAR     82  66  57 E14       30.06R
$$

TEXAS PANHANDLE/OKLAHOMA PANHANDLE

CITY           SKY/WX    TMP DP  RH WIND       PRES   REMARKS
AMARILLO       CLOUDY    75  63  66 SE13      30.13S
BORGER         MOCLDY    76  63  64 SE12G23   30.10S
CANADIAN       CLOUDY    73  65  74 S3        30.09S
DALHART        PTSUNNY   77  63  61 SE15      30.11F
DUMAS          MOCLDY    75  60  60 SE13      30.11S
GUYMON         NOT AVBL
HEREFORD       PTCLDY    76  66  71 S13       30.15R
PAMPA          CLOUDY    71  60  66 SE14      30.13S
PERRYTON       PTCLDY    74  64  72 SE15      30.09S
$$

SOUTHERN PANHANDLE/SOUTH PLAINS/ROLLING PLAINS

CITY           SKY/WX    TMP DP  RH WIND       PRES   REMARKS
LUBBOCK        CLOUDY    78  65  63 E9        30.11F
SNYDER         CLOUDY    74  69  82 E13       30.09S
CHILDRESS      CLOUDY    76  63  64 SE14      30.09F
SEMINOLE       MOCLDY    89  58  35 NE9G17    30.10R
$$

PERMIAN BASIN

CITY           SKY/WX    TMP DP  RH WIND       PRES   REMARKS
MIDLAND        MOCLDY    94  51  23 S10       30.03S
ODESSA         MOCLDY    94  46  19 SE10      30.05S
WINK           MOCLDY    96  47  18 SE10      29.99F
$$

FAR WEST/SOUTHWEST MOUNTAINS/TRANS PECOS

CITY           SKY/WX    TMP DP  RH WIND       PRES   REMARKS
ALPINE         MOCLDY    88  44  21 SE7       30.18F
DRYDEN           N/A     98  50  19 E21       30.00R
EL PASO        PTSUNNY   87  59  38 CALM      30.07F
FORT STOCKTON  CLEAR     92  51  24 SE18      30.04R
GUADALUPE PASS MOSUNNY   80  56  43 NE9       30.23F
MARFA          MOCLDY    86  46  25 SE9       30.18S
PECOS          NOT AVBL
$$

DALLAS/FORT WORTH METROPLEX

CITY           SKY/WX    TMP DP  RH WIND       PRES   REMARKS
DFW AIRPORT    CLOUDY    82  59  45 CALM      30.06F
FTW MEACHAM    CLOUDY    81  62  52 E8        30.06F
DAL-EXECUTIVE  CLOUDY    79  65  62 CALM      30.06F
GRAND PRAIRIE  NOT AVBL
ADDISON        MOCLDY    82  59  44 CALM      30.08
MESQUITE       CLEAR     82  64  54 CALM      30.06F
LANCASTER      CLOUDY    80  64  56 CALM      30.07F
$$

NORTH CENTRAL TEXAS

CITY           SKY/WX    TMP DP  RH WIND       PRES   REMARKS
SHRMAN/DENISON MOCLDY    86  59  40 SW6       30.06F
GAINESVILLE    CLOUDY    80  58  46 S3        30.09F
BRIDGEPORT     MOCLDY    77  64  65 E3        30.09F
DENTON         CLOUDY    77  65  66 CALM      30.07F
WAXAHACHIE     CLOUDY    78  57  48 NE5       30.08F
GRANBURY       MOCLDY    85  58  41 E5        30.07S
$$

WESTERN NORTH TEXAS

CITY           SKY/WX    TMP DP  RH WIND       PRES   REMARKS
WICHITA FALLS  MOCLDY    77  63  61 SE5       30.07F
VERNON         CLOUDY    78  64  60 SE6       30.08F
BRECKENRIDGE   CLOUDY    87  55  32 E9        30.07R
COMANCHE       PTCLDY    84  54  35 E9        30.08R
$$

CENTRAL AND SOUTH CENTRAL TEXAS

CITY           SKY/WX    TMP DP  RH WIND       PRES   REMARKS
AUSTIN/BERGSTM MOCLDY    87  67  51 E13       30.01S
WACO           CLEAR     84  55  36 E9        30.04F
HILLSBORO      NOT AVBL
TEMPLE         PTCLDY    86  64  48 E9        30.05S
KILLEEN-GRAY   MOCLDY    86  66  51 E9        30.05R
FORT HOOD      PTCLDY    86  68  54 E6        30.05S
GEORGETOWN     CLEAR     84  73  70 E7        30.04S
LAGO VISTA     FAIR      84  68  58 E9        30.06S
SAN MARCOS     PTCLDY    90  66  45 E18       30.02S
NEW BRAUNFELS  PTCLDY    91  69  48 E16       29.99R
RANDOLPH AFB   CLEAR     94  60  31 SE10      30.00R
SAN ANTONIO    MOCLDY    94  60  32 S10       30.00S
STINSON        CLEAR     95  60  31 SE6       29.97S
PLEASANTON     NOT AVBL
LA GRANGE      PTCLDY    89  69  51 E7        30.00S
GIDDINGS       CLOUDY    85  69  58 CALM      30.07S
$$

EAST TEXAS

CITY           SKY/WX    TMP DP  RH WIND       PRES   REMARKS
PARIS          PTCLDY    84  63  48 NE3       30.06F
CLARKSVILLE    PTCLDY    86  65  50 CALM      30.06S
TYLER          MOCLDY    85  69  58 W3        30.06S
LONGVIEW       PTCLDY    86  67  52 NE5       30.05S
PALESTINE      NOT AVBL
NACOGDOCHES    MOCLDY    82  73  74 CALM      30.05S
$$

TEXAS HILL COUNTRY AND EDWARDS PLATEAU

CITY           SKY/WX    TMP DP  RH WIND       PRES   REMARKS
LLANO          NOT AVBL
HORSESHOE BAY  FAIR      82  69  66 E7        30.05R
KERRVILLE      CLEAR     92  57  30 SE10      30.05R
FREDERICKSBRG  PTCLDY    86  68  54 E13       30.06R
ROCKSPRINGS    NOT AVBL
HONDO          CLEAR     94  56  27 E12       30.01S
UVALDE         CLEAR     96  55  25 SE7       29.98S
DEL RIO        CLEAR     98  57  25 E10G18    29.94S
$$

SOUTHEAST TEXAS

CITY           SKY/WX    TMP DP  RH WIND       PRES   REMARKS
COLLEGE STN    PTCLDY    86  72  62 NE7       30.03S
CALDWELL       NOT AVBL
CROCKETT       NOT AVBL
BRENHAM        NOT AVBL
HUNTSVILLE     CLOUDY    85  68  56 CALM      30.04S
CONROE         MOCLDY    83  76  79 CALM      30.04S
HOUSTON BUSH   MOCLDY    81  77  88 S3        30.03S
HOUSTON HOBBY  CLOUDY    81  73  76 CALM      30.02F
PERLAND        CLOUDY    84  71  65 CALM      30.04F
WHARTON        MOCLDY    82  72  73 S5        30.02F
$$

THE UPPER TEXAS COAST

CITY           SKY/WX    TMP DP  RH WIND       PRES   REMARKS
ORANGE         PTCLDY    83  69  61 N3        30.04S
PORT ARTHUR    MOCLDY    86  71  60 NE9       30.02S
GALVESTON      CLOUDY    85  74  69 CALM      30.03F
ANGLETON       CLOUDY    77  74  90 CALM      30.03S
BAY CITY       CLOUDY    77  77 100 CALM      30.01F
$$

TEXAS COASTAL BEND, RIO GRANDE PLAINS DEEP SOUTH TEXAS

CITY           SKY/WX    TMP DP  RH WIND       PRES   REMARKS
VICTORIA       MOCLDY    91  66  43 SE14      30.01R
BEEVILLE       FAIR      91  60  35 SE15      29.99S
ROCKPORT       PTCLDY    84  75  74 SE12      29.99F
PORT ARANSAS   PTCLDY    82  77  83 SE8       30.01S
PORT LAVACA    PTCLDY    84  72  66 SE8       30.01S
CORPUS CHRISTI MOCLDY    87  72  60 SE17      30.00R
KINGSVILLE NAS MOCLDY    86  74  67 SE13      29.99R
COTULLA        CLEAR     98  52  21 SE9       29.95R
LAREDO         CLEAR    101  56  22 E14       29.95S
BROWNSVILLE    CLEAR     85  75  72 SE15      29.99S
PORT ISABEL    CLEAR     85  75  72 SE16      30.00R
HEBBRONVILLE   NOT AVBL
MCALLEN        CLEAR     93  68  43 SE17      29.96R
WESLACO        NOT AVBL
FALFURRIAS     CLEAR     84  64  51 E10G17    29.97R
EDINBURG       CLEAR     94  66  39 SE17G23   29.96R
$$


USA.gov is the U.S. government's official web portal to all federal, state and local government web resources and services.